| time (UTC) | temp F | wind direction | speed MPH | gust MPH | rain 1hr in | rain 24hr in | rain mn in | humidity % | barometer mb |
| 20260904175923 | 84 | 163 | 3.0 | 7.0 | 0.00 | 0.00 | 0.00 | 47 | 1020.4 |
| 20260904175423 | 83 | 167 | 3.0 | 7.0 | 0.00 | 0.00 | 0.00 | 47 | 1020.5 |
| 20260904174922 | 83 | 78 | 2.0 | 7.0 | 0.00 | 0.00 | 0.00 | 47 | 1020.6 |
| 20260904174420 | 83 | 157 | 3.0 | 9.0 | 0.00 | 0.00 | 0.00 | 48 | 1020.6 |
| 20260904173918 | 83 | 78 | 3.0 | 9.0 | 0.00 | 0.00 | 0.00 | 47 | 1020.6 |
| 20260904173418 | 83 | 117 | 3.0 | 9.0 | 0.00 | 0.00 | 0.00 | 48 | 1020.7 |
| 20260904172918 | 83 | 157 | 3.0 | 9.0 | 0.00 | 0.00 | 0.00 | 48 | 1020.7 |
| 20260904172418 | 83 | 119 | 2.0 | 6.0 | 0.00 | 0.00 | 0.00 | 49 | 1020.7 |
| 20260904172136 | 82 | 55 | 2.0 | 7.0 | 0.00 | 0.00 | 0.00 | 50 | 1020.7 |
| 20260904171413 | 81 | 110 | 3.0 | 7.0 | 0.00 | 0.00 | 0.00 | 51 | 1020.8 |
| 20260904170912 | 81 | 100 | 2.0 | 6.0 | 0.00 | 0.00 | 0.00 | 51 | 1020.9 |
| 20260904170409 | 81 | 80 | 2.0 | 5.0 | 0.00 | 0.00 | 0.00 | 51 | 1020.9 |
| 20260904165910 | 81 | 104 | 3.0 | 6.0 | 0.00 | 0.00 | 0.00 | 51 | 1020.9 |
| 20260904165410 | 81 | 109 | 3.0 | 6.0 | 0.00 | 0.00 | 0.00 | 51 | 1020.8 |
| 20260904164910 | 80 | 87 | 2.0 | 5.0 | 0.00 | 0.00 | 0.00 | 52 | 1020.7 |
| 20260904164408 | 80 | 101 | 2.0 | 4.0 | 0.00 | 0.00 | 0.00 | 53 | 1020.8 |
| 20260904163909 | 79 | 248 | 2.0 | 6.0 | 0.00 | 0.00 | 0.00 | 54 | 1020.7 |
| 20260904163624 | 78 | 88 | 2.0 | 6.0 | 0.00 | 0.00 | 0.00 | 55 | 1020.7 |
| 20260904163126 | 78 | 57 | 2.0 | 4.0 | 0.00 | 0.00 | 0.00 | 56 | 1020.7 |
| 20260904162406 | 78 | 78 | 2.0 | 4.0 | 0.00 | 0.00 | 0.00 | 56 | 1020.8 |
| 20260904161902 | 78 | 42 | 2.0 | 4.0 | 0.00 | 0.00 | 0.00 | 56 | 1020.8 |
| 20260904161623 | 78 | 26 | 2.0 | 5.0 | 0.00 | 0.00 | 0.00 | 56 | 1020.7 |
| 20260904161122 | 78 | 67 | 1.0 | 5.0 | 0.00 | 0.00 | 0.00 | 56 | 1020.7 |
| 20260904160624 | 78 | 58 | 1.0 | 4.0 | 0.00 | 0.00 | 0.00 | 56 | 1020.5 |
| 20260904155902 | 78 | 338 | 1.0 | 4.0 | 0.00 | 0.00 | 0.00 | 56 | 1020.6 |
| 20260904155402 | 78 | 59 | 1.0 | 4.0 | 0.00 | 0.00 | 0.00 | 57 | 1020.5 |
| 20260904154902 | 77 | 31 | 1.0 | 4.0 | 0.00 | 0.00 | 0.00 | 57 | 1020.5 |
| 20260904154402 | 77 | 37 | 2.0 | 4.0 | 0.00 | 0.00 | 0.00 | 58 | 1020.5 |
| 20260904153902 | 77 | 64 | 1.0 | 4.0 | 0.00 | 0.00 | 0.00 | 58 | 1020.6 |
| 20260904153631 | 77 | 33 | 0.0 | 1.0 | 0.00 | 0.00 | 0.00 | 58 | 1020.6 |
| 20260904152902 | 76 | 33 | 0.0 | 3.0 | 0.00 | 0.00 | 0.00 | 58 | 1020.6 |
| 20260904152401 | 76 | 33 | 1.0 | 4.0 | 0.00 | 0.00 | 0.00 | 59 | 1020.5 |
| 20260904152128 | 76 | 33 | 1.0 | 4.0 | 0.00 | 0.00 | 0.00 | 60 | 1020.5 |
| 20260904151400 | 76 | 355 | 1.0 | 3.0 | 0.00 | 0.00 | 0.00 | 60 | 1020.4 |
| 20260904151124 | 75 | 355 | 2.0 | 4.0 | 0.00 | 0.00 | 0.00 | 60 | 1020.4 |
| 20260904150625 | 75 | 355 | 2.0 | 4.0 | 0.00 | 0.00 | 0.00 | 61 | 1020.2 |
| 20260904145901 | 75 | 355 | 2.0 | 4.0 | 0.00 | 0.00 | 0.00 | 61 | 1020.4 |
| 20260904145401 | 75 | 355 | 1.0 | 4.0 | 0.00 | 0.00 | 0.00 | 62 | 1020.4 |
| 20260904144903 | 75 | 293 | 1.0 | 3.0 | 0.00 | 0.00 | 0.00 | 63 | 1020.4 |
| 20260904144402 | 75 | 301 | 1.0 | 2.0 | 0.00 | 0.00 | 0.00 | 64 | 1020.5 |
| 20260904144127 | 74 | 301 | 1.0 | 3.0 | 0.00 | 0.00 | 0.00 | 64 | 1020.6 |
| 20260904143624 | 74 | 310 | 1.0 | 3.0 | 0.00 | 0.00 | 0.00 | 65 | 1020.6 |
| 20260904142901 | 74 | 109 | 0.0 | 2.0 | 0.00 | 0.00 | 0.00 | 66 | 1020.6 |
| 20260904142402 | 74 | 91 | 1.0 | 3.0 | 0.00 | 0.00 | 0.00 | 66 | 1020.6 |
| 20260904141900 | 73 | 95 | 0.0 | 3.0 | 0.00 | 0.00 | 0.00 | 66 | 1020.6 |
| 20260904141402 | 73 | 92 | 1.0 | 4.0 | 0.00 | 0.00 | 0.00 | 66 | 1020.5 |
| 20260904140901 | 73 | 141 | 3.0 | 4.0 | 0.00 | 0.00 | 0.00 | 66 | 1020.6 |
| 20260904140401 | 73 | 78 | 3.0 | 6.0 | 0.00 | 0.00 | 0.00 | 67 | 1020.5 |
| 20260904135902 | 73 | 106 | 3.0 | 6.0 | 0.00 | 0.00 | 0.00 | 66 | 1020.4 |
| 20260904135402 | 74 | 113 | 3.0 | 7.0 | 0.00 | 0.00 | 0.00 | 66 | 1020.5 |
| 20260904134902 | 74 | 142 | 3.0 | 7.0 | 0.00 | 0.00 | 0.00 | 65 | 1020.4 |
| 20260904134626 | 74 | 121 | 3.0 | 5.0 | 0.00 | 0.00 | 0.00 | 65 | 1020.2 |
| 20260904133901 | 74 | 165 | 3.0 | 7.0 | 0.00 | 0.00 | 0.00 | 64 | 1020.2 |
| 20260904133847 | 74 | 107 | 4.0 | 7.0 | 0.00 | 0.00 | 0.00 | 64 | 1020.1 |
| 20260904132901 | 74 | 113 | 3.0 | 7.0 | 0.00 | 0.00 | 0.00 | 63 | 1020.0 |
| 20260904132401 | 74 | 107 | 2.0 | 6.0 | 0.00 | 0.00 | 0.00 | 63 | 1019.9 |
| 20260904131900 | 74 | 92 | 3.0 | 6.0 | 0.00 | 0.00 | 0.00 | 63 | 1019.8 |
| 20260904131401 | 74 | 103 | 3.0 | 6.0 | 0.00 | 0.00 | 0.00 | 63 | 1019.7 |
| 20260904130900 | 74 | 76 | 3.0 | 7.0 | 0.00 | 0.00 | 0.00 | 62 | 1019.6 |
| 20260904130401 | 74 | 114 | 4.0 | 7.0 | 0.00 | 0.00 | 0.00 | 62 | 1019.5 |
| 20260904125901 | 74 | 126 | 4.0 | 9.0 | 0.00 | 0.00 | 0.00 | 61 | 1019.6 |
| 20260904125401 | 75 | 121 | 4.0 | 9.0 | 0.00 | 0.00 | 0.00 | 59 | 1019.5 |
| 20260904124902 | 75 | 152 | 3.0 | 10.0 | 0.00 | 0.00 | 0.00 | 58 | 1019.5 |
| 20260904124623 | 75 | 127 | 4.0 | 10.0 | 0.00 | 0.00 | 0.00 | 58 | 1019.3 |
| 20260904123902 | 75 | 162 | 3.0 | 5.0 | 0.00 | 0.00 | 0.00 | 58 | 1019.2 |
| 20260904123401 | 75 | 142 | 2.0 | 4.0 | 0.00 | 0.00 | 0.00 | 59 | 1019.2 |
| 20260904122903 | 75 | 134 | 2.0 | 5.0 | 0.00 | 0.00 | 0.00 | 59 | 1019.1 |
| 20260904122402 | 75 | 166 | 3.0 | 5.0 | 0.00 | 0.00 | 0.00 | 57 | 1019.1 |
| 20260904121901 | 75 | 184 | 3.0 | 7.0 | 0.00 | 0.00 | 0.00 | 56 | 1019.1 |
| 20260904121402 | 75 | 216 | 4.0 | 8.0 | 0.00 | 0.00 | 0.00 | 55 | 1019.2 |
| 20260904120901 | 76 | 202 | 5.0 | 8.0 | 0.00 | 0.00 | 0.00 | 55 | 1019.1 |
| 20260904120401 | 76 | 194 | 6.0 | 13.0 | 0.00 | 0.00 | 0.00 | 54 | 1019.1 |
| 20260904115901 | 75 | 221 | 7.0 | 14.0 | 0.00 | 0.00 | 0.00 | 54 | 1019.2 |
| 20260904115401 | 75 | 196 | 8.0 | 14.0 | 0.00 | 0.00 | 0.00 | 55 | 1019.1 |
| 20260904115119 | 75 | 225 | 7.0 | 13.0 | 0.00 | 0.00 | 0.00 | 56 | 1019.2 |
| 20260904114401 | 75 | 168 | 6.0 | 12.0 | 0.00 | 0.00 | 0.00 | 58 | 1019.2 |
| 20260904113901 | 75 | 191 | 7.0 | 15.0 | 0.00 | 0.00 | 0.00 | 58 | 1019.1 |
| 20260904113400 | 75 | 208 | 8.0 | 15.0 | 0.00 | 0.00 | 0.00 | 57 | 1019.1 |
| 20260904112901 | 75 | 163 | 7.0 | 14.0 | 0.00 | 0.00 | 0.00 | 57 | 1019.1 |
| 20260904112402 | 76 | 221 | 7.0 | 13.0 | 0.00 | 0.00 | 0.00 | 56 | 1019.0 |
| 20260904111901 | 76 | 163 | 7.0 | 13.0 | 0.00 | 0.00 | 0.00 | 55 | 1019.0 |
| 20260904111402 | 76 | 173 | 9.0 | 13.0 | 0.00 | 0.00 | 0.00 | 55 | 1018.9 |
| 20260904110900 | 76 | 180 | 10.0 | 25.0 | 0.00 | 0.00 | 0.00 | 55 | 1019.0 |
| 20260904110620 | 76 | 167 | 11.0 | 25.0 | 0.00 | 0.00 | 0.00 | 54 | 1019.0 |
| 20260904105902 | 76 | 175 | 9.0 | 18.0 | 0.00 | 0.00 | 0.00 | 53 | 1018.9 |
| 20260904105401 | 77 | 174 | 7.0 | 13.0 | 0.00 | 0.00 | 0.00 | 51 | 1018.9 |
| 20260904104859 | 77 | 150 | 5.0 | 12.0 | 0.00 | 0.00 | 0.00 | 51 | 1018.7 |
| 20260904104359 | 77 | 72 | 2.0 | 7.0 | 0.00 | 0.00 | 0.00 | 51 | 1018.6 |
| 20260904103857 | 77 | 72 | 3.0 | 14.0 | 0.00 | 0.00 | 0.00 | 51 | 1018.4 |
| 20260904103625 | 77 | 105 | 3.0 | 14.0 | 0.00 | 0.00 | 0.00 | 51 | 1018.6 |
| 20260904102857 | 77 | 238 | 2.0 | 9.0 | 0.00 | 0.00 | 0.00 | 51 | 1018.7 |
| 20260904102355 | 77 | 153 | 3.0 | 7.0 | 0.00 | 0.00 | 0.00 | 51 | 1018.8 |
| 20260904102117 | 77 | 93 | 4.0 | 10.0 | 0.00 | 0.00 | 0.00 | 51 | 1018.9 |
| 20260904101353 | 77 | 42 | 4.0 | 10.0 | 0.00 | 0.00 | 0.00 | 49 | 1018.8 |
| 20260904100853 | 78 | 325 | 5.0 | 12.0 | 0.00 | 0.00 | 0.00 | 50 | 1018.7 |
| 20260904100351 | 78 | 275 | 6.0 | 15.0 | 0.00 | 0.00 | 0.00 | 49 | 1018.4 |
| 20260904095850 | 77 | 228 | 6.0 | 15.0 | 0.00 | 0.00 | 0.00 | 49 | 1018.3 |
| 20260904095349 | 76 | 146 | 6.0 | 10.0 | 0.00 | 0.00 | 0.00 | 51 | 1018.8 |
| 20260904094850 | 76 | 242 | 5.0 | 11.0 | 0.00 | 0.00 | 0.00 | 52 | 1018.4 |
| 20260904094350 | 76 | 254 | 3.0 | 11.0 | 0.00 | 0.00 | 0.00 | 53 | 1018.4 |
| 20260904093850 | 76 | 178 | 2.0 | 7.0 | 0.00 | 0.00 | 0.00 | 54 | 1018.6 |
| 20260904093343 | 76 | 323 | 3.0 | 7.0 | 0.00 | 0.00 | 0.00 | 54 | 1018.6 |
| 20260904092831 | 75 | 36 | 2.0 | 7.0 | 0.00 | 0.00 | 0.00 | 55 | 1018.7 |
| 20260904092558 | 75 | 314 | 5.0 | 10.0 | 0.00 | 0.00 | 0.00 | 55 | 1018.7 |
| 20260904092049 | 76 | 191 | 7.0 | 16.0 | 0.00 | 0.00 | 0.00 | 55 | 1018.7 |
| 20260904091330 | 76 | 190 | 6.0 | 16.0 | 0.00 | 0.00 | 0.00 | 54 | 1018.7 |
| 20260904090830 | 76 | 241 | 6.0 | 9.0 | 0.00 | 0.00 | 0.00 | 52 | 1018.8 |
| 20260904090550 | 76 | 161 | 5.0 | 9.0 | 0.00 | 0.00 | 0.00 | 52 | 1018.9 |
| 20260904085829 | 76 | 160 | 5.0 | 8.0 | 0.00 | 0.00 | 0.00 | 52 | 1018.8 |
| 20260904085330 | 76 | 144 | 5.0 | 8.0 | 0.00 | 0.00 | 0.00 | 52 | 1018.9 |
| 20260904084829 | 76 | 134 | 6.0 | 10.0 | 0.00 | 0.00 | 0.00 | 53 | 1018.8 |
| 20260904084330 | 76 | 147 | 4.0 | 10.0 | 0.00 | 0.00 | 0.00 | 53 | 1018.9 |
| 20260904083829 | 77 | 130 | 3.0 | 7.0 | 0.00 | 0.00 | 0.00 | 52 | 1018.9 |
| 20260904083329 | 76 | 109 | 4.0 | 7.0 | 0.00 | 0.00 | 0.00 | 52 | 1019.0 |
| 20260904082829 | 76 | 123 | 5.0 | 8.0 | 0.00 | 0.00 | 0.00 | 52 | 1019.0 |
| 20260904082330 | 76 | 142 | 5.0 | 8.0 | 0.00 | 0.00 | 0.00 | 52 | 1019.0 |
| 20260904082047 | 76 | 146 | 5.0 | 13.0 | 0.00 | 0.00 | 0.00 | 53 | 1019.0 |
| 20260904081330 | 76 | 119 | 6.0 | 13.0 | 0.00 | 0.00 | 0.00 | 53 | 1019.0 |
| 20260904081055 | 76 | 98 | 6.0 | 13.0 | 0.00 | 0.00 | 0.00 | 54 | 1019.1 |
| 20260904080330 | 76 | 140 | 7.0 | 13.0 | 0.00 | 0.00 | 0.00 | 54 | 1019.1 |
| 20260904075830 | 76 | 228 | 8.0 | 21.0 | 0.00 | 0.00 | 0.00 | 54 | 1019.1 |
| 20260904075329 | 76 | 147 | 9.0 | 21.0 | 0.00 | 0.00 | 0.00 | 54 | 1019.0 |
| 20260904074829 | 76 | 192 | 8.0 | 19.0 | 0.00 | 0.00 | 0.00 | 52 | 1019.1 |
| 20260904074330 | 76 | 146 | 8.0 | 17.0 | 0.00 | 0.00 | 0.00 | 53 | 1019.0 |
| 20260904073829 | 76 | 153 | 7.0 | 17.0 | 0.00 | 0.00 | 0.00 | 53 | 1019.2 |
| 20260904073329 | 76 | 149 | 8.0 | 17.0 | 0.00 | 0.00 | 0.00 | 54 | 1019.2 |
| 20260904072829 | 77 | 171 | 9.0 | 18.0 | 0.00 | 0.00 | 0.00 | 54 | 1019.3 |
| 20260904072752 | 78 | 196 | 9.0 | 15.0 | 0.00 | 0.00 | 0.00 | 54 | 1019.7 |
| 20260904072525 | 77 | 202 | 9.0 | 18.0 | 0.00 | 0.00 | 0.00 | 54 | 1019.5 |
| 20260904071330 | 78 | 227 | 10.0 | 17.0 | 0.00 | 0.00 | 0.00 | 55 | 1019.8 |
| 20260904071056 | 78 | 254 | 10.0 | 17.0 | 0.00 | 0.00 | 0.00 | 53 | 1019.6 |
| 20260904070329 | 79 | 244 | 10.0 | 19.0 | 0.00 | 0.00 | 0.00 | 54 | 1019.7 |
| 20260904070051 | 79 | 234 | 10.0 | 19.0 | 0.00 | 0.00 | 0.00 | 54 | 1019.6 |
| 20260904065330 | 79 | 186 | 9.0 | 17.0 | 0.00 | 0.00 | 0.00 | 54 | 1019.6 |
| 20260904064829 | 79 | 213 | 10.0 | 17.0 | 0.00 | 0.00 | 0.00 | 53 | 1019.5 |
| 20260904064329 | 80 | 219 | 10.0 | 17.0 | 0.00 | 0.00 | 0.00 | 52 | 1019.3 |
| 20260904064050 | 80 | 227 | 7.0 | 17.0 | 0.00 | 0.00 | 0.00 | 51 | 1019.3 |
| 20260904063329 | 80 | 180 | 6.0 | 15.0 | 0.00 | 0.00 | 0.00 | 50 | 1019.2 |
| 20260904062830 | 79 | 167 | 7.0 | 13.0 | 0.00 | 0.00 | 0.00 | 49 | 1019.3 |
| 20260904062329 | 79 | 193 | 8.0 | 14.0 | 0.00 | 0.00 | 0.00 | 50 | 1019.2 |
| 20260904061831 | 79 | 147 | 9.0 | 15.0 | 0.00 | 0.00 | 0.00 | 50 | 1019.1 |
| 20260904061329 | 80 | 170 | 9.0 | 15.0 | 0.00 | 0.00 | 0.00 | 49 | 1019.1 |
| 20260904061046 | 80 | 173 | 8.0 | 13.0 | 0.00 | 0.00 | 0.00 | 49 | 1019.0 |
| 20260904060329 | 80 | 186 | 8.0 | 14.0 | 0.00 | 0.00 | 0.00 | 48 | 1019.0 |
| 20260904055829 | 80 | 158 | 7.0 | 14.0 | 0.00 | 0.00 | 0.00 | 48 | 1018.8 |
| 20260904055331 | 80 | 232 | 7.0 | 12.0 | 0.00 | 0.00 | 0.00 | 48 | 1018.8 |
| 20260904054830 | 80 | 186 | 9.0 | 17.0 | 0.00 | 0.00 | 0.00 | 48 | 1018.7 |
| 20260904054329 | 80 | 176 | 10.0 | 17.0 | 0.00 | 0.00 | 0.00 | 48 | 1018.7 |
| 20260904054053 | 80 | 177 | 9.0 | 18.0 | 0.00 | 0.00 | 0.00 | 47 | 1018.6 |
| 20260904053329 | 80 | 166 | 8.0 | 18.0 | 0.00 | 0.00 | 0.00 | 48 | 1018.6 |
| 20260904053307 | 81 | 177 | 10.0 | 19.0 | 0.00 | 0.00 | 0.00 | 48 | 1018.6 |
| 20260904052328 | 81 | 163 | 10.0 | 19.0 | 0.00 | 0.00 | 0.00 | 48 | 1018.6 |
| 20260904051830 | 81 | 205 | 11.0 | 20.0 | 0.00 | 0.00 | 0.00 | 48 | 1018.4 |
| 20260904051329 | 82 | 163 | 11.0 | 20.0 | 0.00 | 0.00 | 0.00 | 47 | 1018.2 |
| 20260904050829 | 82 | 157 | 11.0 | 19.0 | 0.00 | 0.00 | 0.00 | 46 | 1018.0 |
| 20260904050329 | 83 | 158 | 13.0 | 23.0 | 0.00 | 0.00 | 0.00 | 44 | 1018.0 |
| 20260904045829 | 85 | 155 | 9.0 | 23.0 | 0.00 | 0.00 | 0.00 | 42 | 1018.0 |
| 20260904045329 | 88 | 146 | 2.0 | 17.0 | 0.00 | 0.00 | 0.00 | 34 | 1017.8 |
| 20260904044829 | 87 | 111 | 0.0 | 5.0 | 0.00 | 0.00 | 0.00 | 33 | 1017.4 |
| 20260904044328 | 88 | 77 | 1.0 | 8.0 | 0.00 | 0.00 | 0.00 | 33 | 1017.2 |
| 20260904043829 | 88 | 281 | 2.0 | 9.0 | 0.00 | 0.00 | 0.00 | 33 | 1017.1 |
| 20260904043329 | 88 | 317 | 2.0 | 9.0 | 0.00 | 0.00 | 0.00 | 33 | 1017.1 |
| 20260904042830 | 88 | 294 | 0.0 | 4.0 | 0.00 | 0.00 | 0.00 | 33 | 1017.0 |
| 20260904042330 | 88 | 299 | 0.0 | 0.0 | 0.00 | 0.00 | 0.00 | 33 | 1016.9 |
| 20260904042057 | 88 | 280 | 0.0 | 2.0 | 0.00 | 0.00 | 0.00 | 32 | 1016.8 |
| 20260904041554 | 88 | 293 | 1.0 | 3.0 | 0.00 | 0.00 | 0.00 | 32 | 1016.8 |
| 20260904040829 | 89 | 253 | 1.0 | 3.0 | 0.00 | 0.00 | 0.00 | 32 | 1016.9 |
| 20260904040330 | 89 | 311 | 3.0 | 9.0 | 0.00 | 0.00 | 0.00 | 32 | 1016.9 |
| 20260904035829 | 89 | 246 | 3.0 | 9.0 | 0.00 | 0.00 | 0.00 | 32 | 1016.9 |
| 20260904035329 | 89 | 223 | 3.0 | 8.0 | 0.00 | 0.00 | 0.00 | 32 | 1016.9 |
| 20260904034830 | 89 | 254 | 5.0 | 12.0 | 0.00 | 0.00 | 0.00 | 32 | 1016.9 |
| 20260904034329 | 89 | 242 | 5.0 | 12.0 | 0.00 | 0.00 | 0.00 | 32 | 1016.8 |
| 20260904033829 | 89 | 288 | 6.0 | 14.0 | 0.00 | 0.00 | 0.00 | 32 | 1016.8 |
| 20260904033329 | 89 | 266 | 7.0 | 14.0 | 0.00 | 0.00 | 0.00 | 32 | 1016.8 |
| 20260904032829 | 89 | 225 | 5.0 | 12.0 | 0.00 | 0.00 | 0.00 | 31 | 1016.7 |
| 20260904032329 | 89 | 256 | 3.0 | 8.0 | 0.00 | 0.00 | 0.00 | 31 | 1016.8 |
| 20260904031830 | 89 | 290 | 2.0 | 6.0 | 0.00 | 0.00 | 0.00 | 31 | 1016.7 |
| 20260904031329 | 89 | 281 | 2.0 | 4.0 | 0.00 | 0.00 | 0.00 | 31 | 1016.5 |
| 20260904030829 | 89 | 279 | 2.0 | 4.0 | 0.00 | 0.00 | 0.00 | 31 | 1016.5 |
| 20260904030329 | 89 | 277 | 2.0 | 4.0 | 0.00 | 0.00 | 0.00 | 31 | 1016.4 |
| 20260904030053 | 89 | 258 | 2.0 | 4.0 | 0.00 | 0.00 | 0.00 | 31 | 1016.3 |
| 20260904025329 | 89 | 286 | 1.0 | 4.0 | 0.00 | 0.00 | 0.00 | 31 | 1016.1 |
| 20260904024829 | 89 | 301 | 2.0 | 6.0 | 0.00 | 0.00 | 0.00 | 31 | 1016.1 |
| 20260904024554 | 90 | 306 | 3.0 | 7.0 | 0.00 | 0.00 | 0.00 | 30 | 1016.0 |
| 20260904023829 | 90 | 288 | 3.0 | 8.0 | 0.00 | 0.00 | 0.00 | 30 | 1015.9 |
| 20260904023330 | 90 | 302 | 3.0 | 8.0 | 0.00 | 0.00 | 0.00 | 30 | 1015.6 |
| 20260904023052 | 90 | 325 | 3.0 | 8.0 | 0.00 | 0.00 | 0.00 | 30 | 1015.8 |
| 20260904022329 | 90 | 315 | 2.0 | 6.0 | 0.00 | 0.00 | 0.00 | 30 | 1015.8 |
| 20260904021829 | 90 | 304 | 2.0 | 4.0 | 0.00 | 0.00 | 0.00 | 30 | 1015.5 |
| 20260904021329 | 90 | 297 | 2.0 | 5.0 | 0.00 | 0.00 | 0.00 | 30 | 1015.6 |
| 20260904020829 | 90 | 314 | 2.0 | 5.0 | 0.00 | 0.00 | 0.00 | 30 | 1015.5 |
| 20260904020329 | 90 | 302 | 3.0 | 7.0 | 0.00 | 0.00 | 0.00 | 30 | 1015.4 |
| 20260904015829 | 90 | 314 | 3.0 | 7.0 | 0.00 | 0.00 | 0.00 | 29 | 1015.3 |
| 20260904015328 | 90 | 305 | 3.0 | 6.0 | 0.00 | 0.00 | 0.00 | 29 | 1015.3 |
| 20260904014828 | 91 | 303 | 3.0 | 6.0 | 0.00 | 0.00 | 0.00 | 29 | 1015.3 |
| 20260904014329 | 91 | 294 | 3.0 | 8.0 | 0.00 | 0.00 | 0.00 | 29 | 1015.4 |
| 20260904013829 | 91 | 288 | 2.0 | 8.0 | 0.00 | 0.00 | 0.00 | 29 | 1015.4 |
| 20260904013329 | 91 | 280 | 2.0 | 7.0 | 0.00 | 0.00 | 0.00 | 29 | 1015.4 |
| 20260904012829 | 91 | 311 | 3.0 | 7.0 | 0.00 | 0.00 | 0.00 | 29 | 1015.5 |
| 20260904012330 | 91 | 281 | 3.0 | 8.0 | 0.00 | 0.00 | 0.00 | 29 | 1015.4 |
| 20260904012055 | 91 | 300 | 4.0 | 9.0 | 0.00 | 0.00 | 0.00 | 29 | 1015.4 |
| 20260904011551 | 92 | 306 | 4.0 | 9.0 | 0.00 | 0.00 | 0.00 | 28 | 1015.5 |
| 20260904010829 | 92 | 286 | 4.0 | 9.0 | 0.00 | 0.00 | 0.00 | 28 | 1015.4 |
| 20260904010329 | 93 | 290 | 4.0 | 10.0 | 0.00 | 0.00 | 0.00 | 28 | 1015.4 |
| 20260904010052 | 93 | 281 | 4.0 | 10.0 | 0.00 | 0.00 | 0.00 | 28 | 1015.4 |
| 20260904005329 | 93 | 302 | 5.0 | 12.0 | 0.00 | 0.00 | 0.00 | 28 | 1015.2 |
| 20260904004829 | 93 | 293 | 6.0 | 12.0 | 0.00 | 0.00 | 0.00 | 28 | 1015.3 |
| 20260904004329 | 93 | 276 | 5.0 | 11.0 | 0.00 | 0.00 | 0.00 | 27 | 1015.2 |
| 20260904003829 | 94 | 278 | 5.0 | 11.0 | 0.00 | 0.00 | 0.00 | 26 | 1015.2 |
| 20260904003546 | 94 | 316 | 5.0 | 12.0 | 0.00 | 0.00 | 0.00 | 27 | 1015.2 |
| 20260904003049 | 94 | 325 | 5.0 | 12.0 | 0.00 | 0.00 | 0.00 | 27 | 1015.2 |
| 20260904002325 | 94 | 236 | 7.0 | 12.0 | 0.00 | 0.00 | 0.00 | 27 | 1015.2 |
| 20260904001824 | 94 | 242 | 7.0 | 14.0 | 0.00 | 0.00 | 0.00 | 27 | 1015.2 |
| 20260904001546 | 94 | 238 | 7.0 | 14.0 | 0.00 | 0.00 | 0.00 | 27 | 1015.1 |
| 20260904000825 | 95 | 245 | 6.0 | 15.0 | 0.00 | 0.00 | 0.00 | 27 | 1015.1 |
| 20260904000551 | 95 | 284 | 6.0 | 15.0 | 0.00 | 0.00 | 0.00 | 27 | 1015.2 |
| 20260903235825 | 95 | 220 | 7.0 | 12.0 | 0.00 | 0.00 | 0.00 | 27 | 1015.1 |
| 20260903235325 | 94 | 237 | 7.0 | 12.0 | 0.00 | 0.00 | 0.00 | 27 | 1015.1 |
| 20260903234825 | 95 | 202 | 6.0 | 11.0 | 0.00 | 0.00 | 0.00 | 26 | 1015.2 |
| 20260903234325 | 95 | 248 | 5.0 | 12.0 | 0.00 | 0.00 | 0.00 | 26 | 1015.2 |
| 20260903233825 | 95 | 240 | 5.0 | 12.0 | 0.00 | 0.00 | 0.00 | 26 | 1015.2 |
| 20260903233324 | 94 | 312 | 6.0 | 16.0 | 0.00 | 0.00 | 0.00 | 26 | 1015.2 |
| 20260903232824 | 95 | 261 | 6.0 | 16.0 | 0.00 | 0.00 | 0.00 | 26 | 1015.2 |
| 20260903232325 | 94 | 344 | 6.0 | 12.0 | 0.00 | 0.00 | 0.00 | 27 | 1015.2 |
| 20260903231825 | 94 | 355 | 5.0 | 10.0 | 0.00 | 0.00 | 0.00 | 27 | 1015.2 |
| 20260903231325 | 94 | 284 | 5.0 | 10.0 | 0.00 | 0.00 | 0.00 | 27 | 1015.2 |
| 20260903230825 | 94 | 313 | 5.0 | 9.0 | 0.00 | 0.00 | 0.00 | 27 | 1015.3 |
| 20260903230325 | 94 | 319 | 5.0 | 19.0 | 0.00 | 0.00 | 0.00 | 26 | 1015.3 |
| 20260903225825 | 95 | 317 | 4.0 | 19.0 | 0.00 | 0.00 | 0.00 | 26 | 1015.3 |
| 20260903225324 | 95 | 25 | 5.0 | 14.0 | 0.00 | 0.00 | 0.00 | 26 | 1015.3 |
| 20260903224823 | 95 | 323 | 6.0 | 14.0 | 0.00 | 0.00 | 0.00 | 25 | 1015.3 |
| 20260903224323 | 95 | 342 | 4.0 | 11.0 | 0.00 | 0.00 | 0.00 | 26 | 1015.3 |
| 20260903223820 | 95 | 259 | 5.0 | 12.0 | 0.00 | 0.00 | 0.00 | 26 | 1015.4 |
| 20260903223322 | 95 | 243 | 6.0 | 12.0 | 0.00 | 0.00 | 0.00 | 26 | 1015.4 |
| 20260903223038 | 95 | 355 | 6.0 | 13.0 | 0.00 | 0.00 | 0.00 | 26 | 1015.5 |
| 20260903222319 | 95 | 326 | 6.0 | 13.0 | 0.00 | 0.00 | 0.00 | 26 | 1015.5 |
| 20260903221817 | 95 | 309 | 5.0 | 9.0 | 0.00 | 0.00 | 0.00 | 26 | 1015.5 |
| 20260903221314 | 96 | 276 | 4.0 | 10.0 | 0.00 | 0.00 | 0.00 | 26 | 1015.5 |
| 20260903220815 | 95 | 319 | 4.0 | 14.0 | 0.00 | 0.00 | 0.00 | 27 | 1015.5 |
| 20260903220315 | 94 | 265 | 5.0 | 14.0 | 0.00 | 0.00 | 0.00 | 27 | 1015.8 |
| 20260903215815 | 94 | 340 | 5.0 | 11.0 | 0.00 | 0.00 | 0.00 | 28 | 1015.8 |
| 20260903215314 | 93 | 28 | 5.0 | 9.0 | 0.00 | 0.00 | 0.00 | 28 | 1015.8 |
| 20260903214815 | 93 | 290 | 6.0 | 14.0 | 0.00 | 0.00 | 0.00 | 28 | 1015.9 |
| 20260903214314 | 93 | 308 | 6.0 | 14.0 | 0.00 | 0.00 | 0.00 | 28 | 1016.0 |
| 20260903213815 | 94 | 9 | 6.0 | 14.0 | 0.00 | 0.00 | 0.00 | 27 | 1016.0 |
| 20260903213314 | 95 | 293 | 7.0 | 15.0 | 0.00 | 0.00 | 0.00 | 27 | 1016.1 |
| 20260903212814 | 94 | 302 | 7.0 | 15.0 | 0.00 | 0.00 | 0.00 | 27 | 1016.1 |
| 20260903212515 | 94 | 310 | 6.0 | 12.0 | 0.00 | 0.00 | 0.00 | 28 | 1016.2 |
| 20260903212505 | 94 | 315 | 7.0 | 14.0 | 0.00 | 0.00 | 0.00 | 27 | 1016.2 |
| 20260903211306 | 94 | 345 | 4.0 | 11.0 | 0.00 | 0.00 | 0.00 | 27 | 1016.2 |
| 20260903210807 | 94 | 284 | 4.0 | 10.0 | 0.00 | 0.00 | 0.00 | 27 | 1016.4 |
| 20260903210306 | 94 | 355 | 4.0 | 10.0 | 0.00 | 0.00 | 0.00 | 27 | 1016.5 |
| 20260903205806 | 93 | 317 | 6.0 | 16.0 | 0.00 | 0.00 | 0.00 | 28 | 1016.7 |
| 20260903205306 | 93 | 332 | 8.0 | 16.0 | 0.00 | 0.00 | 0.00 | 28 | 1016.9 |
| 20260903205024 | 94 | 306 | 8.0 | 18.0 | 0.00 | 0.00 | 0.00 | 28 | 1016.9 |
| 20260903204303 | 94 | 298 | 8.0 | 18.0 | 0.00 | 0.00 | 0.00 | 28 | 1016.9 |
| 20260903203801 | 93 | 306 | 6.0 | 12.0 | 0.00 | 0.00 | 0.00 | 28 | 1016.9 |
| 20260903203301 | 93 | 331 | 4.0 | 11.0 | 0.00 | 0.00 | 0.00 | 28 | 1017.1 |
| 20260903202801 | 93 | 310 | 5.0 | 11.0 | 0.00 | 0.00 | 0.00 | 28 | 1017.2 |
| 20260903202301 | 93 | 313 | 7.0 | 14.0 | 0.00 | 0.00 | 0.00 | 28 | 1017.2 |
| 20260903202021 | 93 | 310 | 7.0 | 14.0 | 0.00 | 0.00 | 0.00 | 28 | 1017.3 |
| 20260903201301 | 93 | 280 | 6.0 | 12.0 | 0.00 | 0.00 | 0.00 | 28 | 1017.4 |
| 20260903200800 | 93 | 317 | 6.0 | 13.0 | 0.00 | 0.00 | 0.00 | 27 | 1017.3 |
| 20260903200302 | 93 | 326 | 7.0 | 15.0 | 0.00 | 0.00 | 0.00 | 28 | 1017.4 |
| 20260903195801 | 93 | 266 | 6.0 | 15.0 | 0.00 | 0.00 | 0.00 | 27 | 1017.4 |
| 20260903195256 | 93 | 321 | 7.0 | 13.0 | 0.00 | 0.00 | 0.00 | 28 | 1017.6 |
| 20260903194749 | 92 | 300 | 7.0 | 14.0 | 0.00 | 0.00 | 0.00 | 29 | 1017.7 |
| 20260903194244 | 92 | 294 | 6.0 | 11.0 | 0.00 | 0.00 | 0.00 | 29 | 1017.7 |
| 20260903193958 | 91 | 312 | 7.0 | 13.0 | 0.00 | 0.00 | 0.00 | 29 | 1017.8 |
| 20260903193232 | 91 | 321 | 7.0 | 15.0 | 0.00 | 0.00 | 0.00 | 29 | 1017.9 |
| 20260903192730 | 92 | 313 | 6.0 | 15.0 | 0.00 | 0.00 | 0.00 | 29 | 1017.9 |
| 20260903192452 | 92 | 265 | 7.0 | 15.0 | 0.00 | 0.00 | 0.00 | 30 | 1018.0 |
| 20260903191730 | 92 | 298 | 8.0 | 15.0 | 0.00 | 0.00 | 0.00 | 29 | 1018.1 |
| 20260903191231 | 91 | 240 | 7.0 | 14.0 | 0.00 | 0.00 | 0.00 | 29 | 1018.1 |
| 20260903190730 | 92 | 292 | 7.0 | 17.0 | 0.00 | 0.00 | 0.00 | 30 | 1018.1 |
| 20260903190229 | 92 | 296 | 8.0 | 17.0 | 0.00 | 0.00 | 0.00 | 31 | 1018.1 |
| 20260903185729 | 91 | 267 | 8.0 | 16.0 | 0.00 | 0.00 | 0.00 | 31 | 1018.2 |
| 20260903185451 | 91 | 319 | 7.0 | 16.0 | 0.00 | 0.00 | 0.00 | 31 | 1018.4 |
| 20260903184729 | 91 | 257 | 8.0 | 13.0 | 0.00 | 0.00 | 0.00 | 31 | 1018.6 |
| 20260903184230 | 91 | 290 | 8.0 | 16.0 | 0.00 | 0.00 | 0.00 | 32 | 1018.7 |
| 20260903183730 | 91 | 254 | 7.0 | 16.0 | 0.00 | 0.00 | 0.00 | 31 | 1018.6 |
| 20260903183229 | 91 | 323 | 6.0 | 15.0 | 0.00 | 0.00 | 0.00 | 31 | 1018.7 |
| 20260903182730 | 90 | 303 | 7.0 | 15.0 | 0.00 | 0.00 | 0.00 | 32 | 1018.9 |
| 20260903182229 | 90 | 309 | 9.0 | 17.0 | 0.00 | 0.00 | 0.00 | 32 | 1019.0 |
| 20260903181730 | 90 | 319 | 9.0 | 17.0 | 0.00 | 0.00 | 0.00 | 32 | 1019.0 |
| 20260903181452 | 90 | 263 | 9.0 | 16.0 | 0.00 | 0.00 | 0.00 | 32 | 1019.1 |
| 20260903180729 | 90 | 252 | 10.0 | 16.0 | 0.00 | 0.00 | 0.00 | 33 | 1019.2 |